sat.trackr.live / text

‹ back to catalog

LPNTSAT-001 (IOD-1)

NORAD 68408 · 2026-065A

PAYLOAD ACTIVE UNKNOWN

§ Identity

Operator
Country
ESA
Launch date
2026-03-28
Launch site
RLLB
Launch vehicle
Mass (kg)
RCS (m²)

External: N2YO · Heavens-Above · Gunter

§ Orbital elements

Epoch: 2026-05-25T03:27:54.146016Z

Period
94.84 min
Inclination
97.4050°
Eccentricity
0.0018304
Mean motion
15.18394588 rev/d
Perigee alt
498.1 km
Apogee alt
523.3 km
Semi-major
6,888.8 km
B*
1.3384e-4
RAAN
26.1401°
Arg perigee
85.4312°
Mean anomaly
274.9013°
Rev number
876

§ Raw data

LPNTSAT-001 (IOD-1)1 68408U 26065A   26145.14437669  .00002696  00000+0  13384-3 0  99972 68408  97.4050  26.1401 0018304  85.4312 274.9013 15.18394588  8765

JSON: /api/v1/satellites/68408 · /tle

For live sub-satellite position, see the globe view (requires WebGL).

§ Visibility from observer

Set your observer location to see the next 7 days of passes ≥ 10°. The values pass through the URL so the page stays shareable.

No JS? Fill the form by hand. The geolocation button needs JavaScript.